Weather History for Laramie, WY

Change the Weather History Date:

Saturday, November 9, 2013

  Actual Average Record
Temperature  
Mean Temperature 43 °F 32 °F  
Max Temperature 56 °F 45 °F 67 °F (1978)
Min Temperature 29 °F 20 °F -22 °F (1950)
Degree Days  
Heating Degree Days 22 33  
Month to date heating degree days 285 277  
Since 1 July heating degree days 1426 1520  
Cooling Degree Days 0 0  
Month to date cooling degree days 0 0  
Year to date cooling degree days 162 67  
Moisture  
Dew Point 23 °F    
Average Humidity 48    
Maximum Humidity 72    
Minimum Humidity 24    
Precipitation  
Precipitation 0.00 in 0.02 in 0.35 in (2010)
Month to date precipitation 0.18 0.19  
Year to date precipitation 11.64 10.25  
Sea Level Pressure  
Sea Level Pressure 30.05 in    
Wind  
Wind Speed 14 mph (SW)    
Max Wind Speed 26 mph    
Max Gust Speed 36 mph    
Visibility 10 miles    
Events      
T = Trace of Precipitation, MM = Missing Value Source: NWS Daily Summary

Daily Weather History Graph

Daily Weather History Graph

Search for Another Location

Airport:

Trip Planner

Search our weather history database for the weather conditions in past years. The results will help you decide how hot, cold, wet, or windy it might be!

Date:

Astronomy

Nov. 09, 2013 Rise Set
Actual Time 6:44 AM MST 4:48 PM MST
Civil Twilight 6:14 AM MST 5:17 PM MST
Nautical Twilight 5:41 AM MST 5:50 PM MST
Astronomical Twilight 5:09 AM MST 6:23 PM MST
Moon 12:21 PM MST (11/9) 11:22 PM MST (11/9)
Length of Visible Light 11h 02m
Length of Day
10h 04m
Waxing Crescent, 45% of the Moon is Illuminated
Nov 9
Waxing Crescent
Nov 9
First Quarter
Nov 17
Full
Nov 25
Last Quarter
Dec 2
New

Hourly Weather History & Observations

Time (MST) Temp. Windchill Dew Point Humidity Pressure Visibility Wind Dir Wind Speed Gust Speed Precip Events Conditions
12:53 AM 39.9 °F 29.7 °F 23.0 °F 51% 29.93 in 10.0 mi WSW 23.0 mph 35.7 mph N/A   Clear
1:53 AM 37.9 °F 30.9 °F 24.1 °F 57% 29.96 in 10.0 mi South 10.4 mph - N/A   Overcast
2:53 AM 37.9 °F 30.0 °F 24.1 °F 57% 29.96 in 10.0 mi South 12.7 mph - N/A   Overcast
3:53 AM 34.0 °F 25.0 °F 23.0 °F 64% 29.99 in 10.0 mi SSW 12.7 mph - N/A   Partly Cloudy
4:53 AM 35.1 °F 25.9 °F 23.0 °F 61% 30.02 in 10.0 mi SSW 13.8 mph - N/A   Partly Cloudy
5:53 AM 36.0 °F 25.3 °F 23.0 °F 59% 30.03 in 10.0 mi SW 19.6 mph - N/A   Clear
6:53 AM 37.0 °F 27.0 °F 21.9 °F 54% 30.05 in 10.0 mi SW 18.4 mph - N/A   Clear
7:53 AM 39.0 °F 29.9 °F 21.9 °F 50% 30.05 in 10.0 mi SW 17.3 mph - N/A   Partly Cloudy
8:53 AM 44.1 °F 37.1 °F 21.9 °F 42% 30.03 in 10.0 mi WSW 15.0 mph - N/A   Clear
9:53 AM 48.0 °F - 21.9 °F 36% 30.02 in 10.0 mi WSW 24.2 mph - N/A   Clear
10:53 AM 51.1 °F - 19.9 °F 29% 30.02 in 10.0 mi WSW 20.7 mph - N/A   Partly Cloudy
11:53 AM 54.0 °F - 19.0 °F 25% 30.00 in 10.0 mi West 18.4 mph 27.6 mph N/A   Clear
12:53 PM 55.0 °F - 19.0 °F 24% 29.98 in 10.0 mi West 15.0 mph 23.0 mph N/A   Clear
1:53 PM 53.1 °F - 21.0 °F 29% 30.00 in 10.0 mi WSW 13.8 mph - N/A   Partly Cloudy
2:53 PM 52.0 °F - 21.9 °F 31% 30.03 in 10.0 mi West 6.9 mph - N/A   Clear
3:53 PM 50.0 °F - 21.9 °F 33% 30.07 in 10.0 mi WNW 8.1 mph - N/A   Partly Cloudy
4:53 PM 45.0 °F 40.1 °F 21.9 °F 40% 30.12 in 10.0 mi West 9.2 mph - N/A   Clear
5:53 PM 42.1 °F 35.2 °F 21.9 °F 45% 30.14 in 10.0 mi WNW 12.7 mph - N/A   Clear
6:53 PM 37.9 °F 32.7 °F 24.1 °F 57% 30.17 in 10.0 mi SSE 6.9 mph - N/A   Clear
7:53 PM 36.0 °F 29.6 °F 24.1 °F 62% 30.18 in 10.0 mi SSE 8.1 mph - N/A   Clear
8:53 PM 34.0 °F 25.5 °F 25.0 °F 70% 30.16 in 10.0 mi South 11.5 mph - N/A   Clear
9:53 PM 35.1 °F 25.9 °F 26.1 °F 70% 30.14 in 10.0 mi SSE 13.8 mph - N/A   Clear
10:53 PM 32.0 °F 24.8 °F 25.0 °F 75% 30.13 in 10.0 mi SE 8.1 mph - N/A   Clear
11:53 PM 30.0 °F 23.2 °F 24.1 °F 79% 30.13 in 10.0 mi SSE 6.9 mph - N/A   Clear